TimeEDT,TemperatureF,Dew PointF,Humidity,Sea Level PressureIn,VisibilityMPH,Wind Direction,Wind SpeedMPH,Gust SpeedMPH,PrecipitationIn,Events,Conditions,WindDirDegrees,DateUTC
12:53 AM,73.9,70.0,87,30.12,10.0,Calm,Calm,-,N/A,,Clear,0,2013-07-10 04:53:00
1:53 AM,75.0,71.1,87,30.11,10.0,Calm,Calm,-,N/A,,Clear,0,2013-07-10 05:53:00
2:53 AM,73.0,69.1,87,30.10,10.0,Calm,Calm,-,N/A,,Clear,0,2013-07-10 06:53:00
3:53 AM,73.9,70.0,87,30.10,10.0,Calm,Calm,-,N/A,,Clear,0,2013-07-10 07:53:00
4:53 AM,72.0,68.0,87,30.10,10.0,Calm,Calm,-,N/A,,Clear,0,2013-07-10 08:53:00
5:53 AM,73.0,69.1,87,30.08,10.0,Calm,Calm,-,N/A,,Clear,0,2013-07-10 09:53:00
6:53 AM,71.1,68.0,90,30.09,10.0,Calm,Calm,-,N/A,,Clear,0,2013-07-10 10:53:00
7:53 AM,78.1,73.9,87,30.10,10.0,SE,3.5,-,N/A,,Clear,140,2013-07-10 11:53:00
8:53 AM,82.0,75.0,79,30.11,10.0,SE,5.8,-,N/A,,Scattered Clouds,140,2013-07-10 12:53:00
9:53 AM,84.9,71.1,63,30.11,10.0,Variable,6.9,-,N/A,,Scattered Clouds,0,2013-07-10 13:53:00
10:53 AM,86.0,70.0,59,30.11,10.0,SSE,4.6,-,N/A,,Scattered Clouds,160,2013-07-10 14:53:00
11:53 AM,87.1,69.1,55,30.10,10.0,ESE,4.6,-,N/A,,Scattered Clouds,120,2013-07-10 15:53:00
12:53 PM,87.1,72.0,61,30.09,10.0,Variable,6.9,-,N/A,,Mostly Cloudy,0,2013-07-10 16:53:00
1:53 PM,89.1,72.0,57,30.06,10.0,ESE,12.7,-,N/A,,Scattered Clouds,110,2013-07-10 17:53:00
2:53 PM,89.1,70.0,53,30.04,10.0,ESE,10.4,18.4,N/A,,Clear,110,2013-07-10 18:53:00
3:53 PM,89.1,70.0,53,30.03,10.0,SE,12.7,-,N/A,,Clear,140,2013-07-10 19:53:00
4:53 PM,88.0,70.0,55,30.03,10.0,SSE,11.5,-,N/A,,Clear,150,2013-07-10 20:53:00
5:53 PM,87.1,69.1,55,30.01,10.0,ESE,11.5,-,N/A,,Clear,110,2013-07-10 21:53:00
6:53 PM,86.0,70.0,59,29.99,10.0,SE,10.4,-,N/A,,Clear,140,2013-07-10 22:53:00
7:53 PM,82.9,71.1,67,29.99,10.0,SE,8.1,-,N/A,,Clear,140,2013-07-10 23:53:00
8:53 PM,81.0,71.1,72,30.00,10.0,SSE,9.2,-,N/A,,Clear,160,2013-07-11 00:53:00
9:53 PM,81.0,72.0,74,30.02,10.0,South,5.8,-,N/A,,Mostly Cloudy,180,2013-07-11 01:53:00
10:53 PM,80.1,73.0,79,30.05,10.0,South,4.6,-,N/A,,Mostly Cloudy,170,2013-07-11 02:53:00
11:53 PM,80.1,73.0,79,30.04,10.0,South,3.5,-,N/A,,Mostly Cloudy,180,2013-07-11 03:53:00